Weather History for KLWM - January, 2013

Change the Weather History Date:

Monday, January 21, 2013

  Actual Average Record
Temperature  
Mean Temperature 24 °F -  
Max Temperature 28 °F 33 °F 57 °F (2006)
Min Temperature 21 °F 14 °F -20 °F (1984)
Degree Days  
Heating Degree Days 40    
Moisture  
Dew Point 10 °F    
Average Humidity 57    
Maximum Humidity 93    
Minimum Humidity 35    
Precipitation  
Precipitation 0.01 in - - ()
Sea Level Pressure  
Sea Level Pressure 29.97 in    
Wind  
Wind Speed 8 mph (WSW)    
Max Wind Speed 18 mph    
Max Gust Speed 25 mph    
Visibility 8 miles    
Events Snow    
Averages and records for this station are not official NWS values.
T = Trace of Precipitation, MM = Missing Value Source: NWS Daily Summary

Daily Weather History Graph

Daily Weather History Graph

Search for Another Location

Airport or City:

Trip Planner

Search our weather history database for the weather conditions in past years. The results will help you decide how hot, cold, wet, or windy it might be!

Date:

Astronomy

Jan. 21, 2013 Rise Set
Actual Time 7:08 AM EST 4:43 PM EST
Civil Twilight 6:37 AM EST 5:14 PM EST
Nautical Twilight 6:03 AM EST 5:49 PM EST
Astronomical Twilight 5:29 AM EST 6:22 PM EST
Moon 12:21 PM EST (1/21) 2:34 AM EST (1/21)
Length of Visible Light 10h 37m
Length of Day
9h 35m
Waxing Gibbous, 75% of the Moon is Illuminated
Jan 21
Waxing Gibbous
Jan 26
Full
Feb 3
Last Quarter
Feb 10
New
Feb 17
First Quarter

Hourly Weather History & Observations

Time (EST) Temp. Windchill Dew Point Humidity Pressure Visibility Wind Dir Wind Speed Gust Speed Precip Events Conditions
12:54 AM 28.0 °F 19.3 °F 8.1 °F 43% 29.94 in 10.0 mi WNW 9.2 mph 20.7 mph N/A   Scattered Clouds
1:54 AM 27.0 °F 13.9 °F 3.0 °F 36% 29.98 in 10.0 mi West 18.4 mph 25.3 mph N/A   Clear
2:54 AM 25.0 °F 14.8 °F 1.9 °F 37% 30.00 in 10.0 mi West 10.4 mph 23.0 mph N/A   Clear
3:54 AM 24.1 °F 12.5 °F -0.0 °F 35% 30.02 in 10.0 mi West 12.7 mph 19.6 mph N/A   Clear
4:54 AM 23.0 °F 12.4 °F -0.9 °F 35% 30.03 in 10.0 mi West 10.4 mph 19.6 mph N/A   Clear
5:54 AM 21.9 °F 13.4 °F -0.9 °F 37% 30.04 in 10.0 mi West 6.9 mph 16.1 mph N/A   Clear
6:54 AM 21.0 °F 13.4 °F 1.9 °F 44% 30.07 in 10.0 mi SW 5.8 mph - N/A   Clear
7:54 AM 21.9 °F 12.5 °F 3.0 °F 44% 30.08 in 10.0 mi West 8.1 mph - N/A   Clear
8:54 AM 23.0 °F 13.1 °F 3.0 °F 42% 30.08 in 10.0 mi West 9.2 mph - N/A   Mostly Cloudy
9:54 AM 26.1 °F 17.6 °F 3.0 °F 37% 30.10 in 10.0 mi WSW 8.1 mph - N/A   Clear
10:54 AM 27.0 °F 16.7 °F 3.0 °F 36% 30.08 in 10.0 mi WSW 11.5 mph 18.4 mph N/A   Overcast
11:54 AM 27.0 °F 19.5 °F 3.0 °F 36% 30.04 in 10.0 mi Variable 6.9 mph - N/A   Overcast
12:54 PM 28.0 °F 20.0 °F 3.9 °F 36% 30.01 in 10.0 mi SW 8.1 mph - N/A   Overcast
1:54 PM 28.0 °F 19.3 °F 3.9 °F 36% 29.99 in 10.0 mi SW 9.2 mph - N/A   Overcast
2:54 PM 28.0 °F 20.8 °F 3.9 °F 36% 29.98 in 10.0 mi SW 6.9 mph - N/A   Overcast
3:54 PM 28.0 °F 22.8 °F 5.0 °F 38% 29.96 in 10.0 mi SW 4.6 mph - N/A   Overcast
4:54 PM 27.0 °F 18.7 °F 8.1 °F 45% 29.96 in 10.0 mi SW 8.1 mph - N/A   Overcast
5:54 PM 26.1 °F 18.4 °F 10.9 °F 53% 29.96 in 10.0 mi SSW 6.9 mph - N/A   Overcast
6:50 PM 24.8 °F 17.9 °F 17.6 °F 74% 29.95 in 2.5 mi SW 5.8 mph - 0.00 in Snow Light Snow
6:54 PM 24.1 °F 18.2 °F 17.1 °F 75% 29.96 in 2.0 mi SW 4.6 mph - 0.00 in Snow Light Snow
7:04 PM 24.8 °F 20.5 °F 17.6 °F 74% 29.95 in 1.8 mi SW 3.5 mph - 0.00 in Snow Light Snow
7:49 PM 24.8 °F - 17.6 °F 74% 29.94 in 2.0 mi Calm Calm - 0.01 in Snow Light Snow
7:54 PM 24.1 °F - 19.0 °F 81% 29.94 in 2.0 mi Calm Calm - 0.01 in Snow Light Snow
8:26 PM 23.0 °F - 17.6 °F 80% 29.93 in 3.0 mi Calm Calm - 0.00 in Snow Light Snow
8:54 PM 24.1 °F 18.2 °F 19.0 °F 81% 29.93 in 7.0 mi ENE 4.6 mph - 0.00 in   Overcast
9:35 PM 23.0 °F 15.8 °F 19.4 °F 86% 29.89 in 6.0 mi ENE 5.8 mph - N/A   Overcast
9:46 PM 21.2 °F 14.9 °F 19.4 °F 93% 29.88 in 2.5 mi NE 4.6 mph - N/A   Overcast
9:54 PM 21.9 °F 17.2 °F 19.0 °F 89% 29.89 in 2.0 mi NE 3.5 mph - N/A   Overcast
10:08 PM 23.0 °F 18.4 °F 19.4 °F 86% 29.89 in 5.0 mi ESE 3.5 mph - N/A   Overcast
10:54 PM 23.0 °F 15.8 °F 19.0 °F 85% 29.86 in 10.0 mi East 5.8 mph - N/A   Mostly Cloudy
11:54 PM 21.9 °F - 18.0 °F 85% 29.81 in 10.0 mi Calm Calm - N/A   Clear